FW1340 Weather Reports


time (UTC)temp
C
wind
direction
speed
KPH
gust
KPH
rain 1hr
cm
rain 24hr
cm
rain mn
cm
humidity
%
barometer
mb
20260902100128 12 165 0.0 0.0 0.00 0.00 0.00 86 1017.0
20260902094558 12 165 0.0 0.0 0.00 0.00 0.00 86 1017.0
20260902093112 12 114 0.0 0.0 0.00 0.00 0.00 86 1017.0
20260902091606 12 114 0.0 0.0 0.00 0.00 0.00 86 1016.8
20260902090155 12 114 0.0 0.0 0.00 0.00 0.00 86 1016.9
20260902084602 12 114 0.0 0.0 0.00 0.00 0.00 86 1016.9
20260902083103 12 114 0.0 0.0 0.00 0.00 0.00 85 1016.9
20260902081610 12 114 0.0 0.0 0.00 0.00 0.00 85 1016.8
20260902080057 12 114 0.0 0.0 0.00 0.00 0.00 84 1016.8
20260902074548 12 121 0.0 0.0 0.00 0.00 0.00 84 1016.7
20260902073043 13 98 0.0 0.0 0.00 0.00 0.00 84 1016.8
20260902071549 13 89 0.0 0.0 0.00 0.00 0.00 83 1016.7
20260902070039 13 115 0.0 0.0 0.00 0.00 0.00 83 1016.7
20260902064538 13 119 0.0 0.0 0.00 0.00 0.00 82 1016.6
20260902063100 13 109 0.0 0.0 0.00 0.00 0.00 81 1016.6
20260902061539 13 74 0.0 0.0 0.00 0.00 0.00 79 1016.7
20260902060048 15 96 0.0 0.0 0.00 0.00 0.00 77 1016.6
20260902054537 15 252 0.0 0.0 0.00 0.00 0.00 77 1016.7
20260902053040 15 252 0.0 0.0 0.00 0.00 0.00 76 1016.8
20260902051535 16 244 0.0 0.0 0.00 0.00 0.00 74 1016.8
20260902050035 16 263 0.0 0.0 0.00 0.00 0.00 72 1016.8
20260902044542 17 263 0.0 0.0 0.00 0.00 0.00 71 1016.7
20260902043033 17 278 0.0 0.0 0.00 0.00 0.00 68 1016.7
20260902041537 17 281 0.0 0.0 0.00 0.00 0.00 66 1016.5
20260902040034 17 258 0.0 0.0 0.00 0.00 0.00 65 1016.3
20260902034529 18 276 0.0 0.0 0.00 0.00 0.00 64 1016.1
20260902033028 18 271 0.0 0.0 0.00 0.00 0.00 65 1015.8
20260902031537 18 249 0.0 0.0 0.00 0.00 0.00 64 1015.5
20260902030027 18 277 0.0 0.0 0.00 0.00 0.00 64 1015.3
20260902024527 19 302 0.0 0.0 0.00 0.00 0.00 62 1015.1
20260902023026 20 277 0.0 0.0 0.00 0.00 0.00 60 1015.0
20260902021537 20 242 0.0 0.0 0.00 0.00 0.00 58 1014.8
20260902020033 21 277 0.0 0.0 0.00 0.00 0.00 55 1014.7
20260902014543 21 259 0.0 0.0 0.00 0.00 0.00 52 1014.6
20260902013024 22 288 0.0 0.0 0.00 0.00 0.00 51 1014.5
20260902011524 22 276 0.0 0.0 0.00 0.00 0.00 49 1014.4
20260902010027 23 252 0.0 0.0 0.00 0.00 0.00 48 1014.3
20260902004525 23 270 0.0 0.0 0.00 0.00 0.00 47 1014.2
20260902003024 24 252 0.0 0.0 0.00 0.00 0.00 47 1014.1
20260902001523 24 250 0.0 0.0 0.00 0.00 0.00 46 1014.2
20260902000033 25 244 0.0 0.0 0.00 0.00 0.00 44 1014.2
20260901234536 25 237 0.0 0.0 0.00 0.00 0.00 43 1014.2
20260901233019 25 267 0.0 0.0 0.00 0.00 0.00 44 1014.4
20260901231519 25 250 0.0 0.0 0.00 0.00 0.00 43 1014.5
20260901230018 25 284 0.0 0.0 0.00 0.00 0.00 43 1014.5
20260901224517 25 259 0.0 0.0 0.00 0.00 0.00 43 1014.7
20260901223015 25 255 0.0 0.0 0.00 0.00 0.00 45 1014.8
20260901221535 24 272 0.0 0.0 0.00 0.00 0.00 46 1015.0
20260901220014 25 279 0.0 0.0 0.00 0.00 0.00 46 1015.1
20260901214510 24 83 0.0 0.0 0.00 0.00 0.00 46 1015.2
20260901213006 23 268 0.0 0.0 0.00 0.00 0.00 50 1015.1
20260901211505 23 234 0.0 0.0 0.00 0.00 0.00 51 1015.2
20260901210007 23 261 0.0 0.0 0.00 0.00 0.00 51 1015.3
20260901204503 23 280 0.0 0.0 0.00 0.00 0.00 51 1015.3
20260901203003 23 180 0.0 0.0 0.00 0.00 0.00 49 1015.5
20260901201501 22 289 0.0 0.0 0.00 0.00 0.00 50 1015.7
20260901200001 23 265 0.0 0.0 0.00 0.00 0.00 51 1015.7
20260901194600 23 243 0.0 0.0 0.00 0.00 0.00 50 1015.8
20260901193108 23 275 0.0 0.0 0.00 0.00 0.00 52 1015.9
20260901191552 22 290 0.0 0.0 0.00 0.00 0.00 55 1016.1
20260901190050 22 238 0.0 0.0 0.00 0.00 0.00 54 1016.2
20260901184555 21 252 0.0 0.0 0.00 0.00 0.00 55 1016.3
20260901183046 21 259 0.0 0.0 0.00 0.00 0.00 56 1016.4
20260901181546 21 290 0.0 0.0 0.00 0.00 0.00 55 1016.4
20260901180043 21 259 0.0 0.0 0.00 0.00 0.00 57 1016.4
20260901174543 21 254 0.0 0.0 0.00 0.00 0.00 57 1016.3
20260901173040 21 304 0.0 0.0 0.00 0.00 0.00 56 1016.3
20260901171538 21 232 0.0 0.0 0.00 0.00 0.00 58 1016.1
20260901170032 20 253 0.0 0.0 0.00 0.00 0.00 62 1016.2
20260901164529 20 265 0.0 0.0 0.00 0.00 0.00 63 1016.1
20260901163026 19 259 0.0 0.0 0.00 0.00 0.00 65 1016.0
20260901161535 18 252 0.0 0.0 0.00 0.00 0.00 67 1016.0
20260901160033 18 236 0.0 0.0 0.00 0.00 0.00 69 1015.9
20260901154513 17 194 0.0 0.0 0.00 0.00 0.00 72 1015.8
20260901153007 16 164 0.0 0.0 0.00 0.00 0.00 75 1015.7
20260901151503 15 147 0.0 0.0 0.00 0.00 0.00 80 1015.5
20260901150002 14 133 0.0 0.0 0.00 0.00 0.00 84 1015.4
20260901144600 13 124 0.0 0.0 0.00 0.00 0.00 88 1015.3
20260901143058 12 148 0.0 0.0 0.00 0.00 0.00 91 1015.2
20260901141554 11 144 0.0 0.0 0.00 0.00 0.00 92 1014.9
20260901140048 10 139 0.0 0.0 0.00 0.00 0.00 91 1014.6
20260901134601 10 115 0.0 0.0 0.00 0.00 0.00 90 1014.4
20260901133045 10 125 0.0 0.0 0.00 0.00 0.00 90 1014.3
20260901131542 10 123 0.0 0.0 0.00 0.00 0.00 89 1014.3
20260901130040 10 127 0.0 0.0 0.00 0.00 0.00 89 1014.1
20260901124550 10 136 0.0 0.0 0.00 0.00 0.00 88 1013.9
20260901123038 10 132 0.0 0.0 0.00 0.00 0.00 88 1013.9
20260901121536 11 146 0.0 0.0 0.00 0.00 0.00 89 1013.9
20260901120049 10 159 0.0 0.0 0.00 0.00 0.00 87 1013.9
20260901114539 11 191 0.0 0.0 0.00 0.00 0.00 87 1013.9
20260901113053 11 126 0.0 0.0 0.00 0.00 0.00 86 1013.6
20260901111529 11 161 0.0 0.0 0.00 0.00 0.00 85 1013.5
20260901110027 11 177 0.0 0.0 0.00 0.00 0.00 85 1013.6
20260901104528 11 163 0.0 0.0 0.00 0.00 0.00 85 1013.5
20260901103022 12 161 0.0 0.0 0.00 0.00 0.00 84 1013.4
20260901101524 12 142 0.0 0.0 0.00 0.00 0.00 83 1013.3